Regional Weather Roundup
Issued by NWS

Home | Current Version | Previous Version | Graphics & Text | Print | Product List | Glossary On
Versions: 1 2 3 4 5 6 7 8 9 10 11 12 13 14 15 16 17 18 19 20 21 22 23 24 25 26 27 28 29 30 31 32 33 34 35 36 37 38 39 40 41 42 43 44 45 46 47 48 49 50
000
ASUS43 KBIS 271710
RWRND

NORTH DAKOTA REGIONAL WEATHER ROUNDUP
NATIONAL WEATHER SERVICE BISMARCK ND
1200 PM CDT THU AUG 27 2015

NOTE: "FAIR" INDICATES FEW OR NO CLOUDS BELOW 12,000 FEET WITH NO
SIGNIFICANT WEATHER AND/OR OBSTRUCTIONS TO VISIBILITY.


NDZ001>003-009>011-017-271800-
NORTHWEST NORTH DAKOTA

CITY           SKY/WX    TMP DP  RH WIND       PRES   REMARKS
WILLISTON      MOSUNNY   75  62  64 CALM      29.98S
MINOT          PTSUNNY   72  62  71 CALM      29.97S
MINOT AFB      PTSUNNY   75  65  73 VRB1      29.96S
$$

NDZ018>021-031>035-040>046-271800-
SOUTHWEST NORTH DAKOTA

CITY           SKY/WX    TMP DP  RH WIND       PRES   REMARKS
BISMARCK       CLOUDY    74  64  71 SW3       29.98F
DICKINSON      CLOUDY    78  60  53 SW8       29.97F
GARRISON         N/A     76  64  66 SE5       29.98R
HETTINGER ARPT CLOUDY    72  60  66 SE5       30.01S
$$

NDZ004>008-012>016-024-026-027-054-271800-
NORTHEAST NORTH DAKOTA

CITY           SKY/WX    TMP DP  RH WIND       PRES   REMARKS
GRAND FORKS    PTSUNNY   70  58  65 SE6       29.96F
GRND FRKS AFB  MOSUNNY   70  59  68 E6        29.96F
DEVILS LAKE    PTSUNNY   73  61  64 SE7       29.96R
$$

NDZ022-023-025-028>030-036>039-047>053-271800-
SOUTHEAST NORTH DAKOTA

CITY           SKY/WX    TMP DP  RH WIND       PRES   REMARKS
FARGO          MOSUNNY   73  62  68 E6        29.96F
JAMESTOWN      MOSUNNY   73  63  70 SE9       29.97R
$$



USA.gov is the U.S. government's official web portal to all federal, state and local government web resources and services.